EW0531 Weather Reports


Display with metric or nautical units.
time (UTC)temp
F
wind
direction
speed
MPH
gust
MPH
rain 1hr
in
rain 24hr
in
rain mn
in
humidity
%
barometer
mb
20210621101547 54 29 6.0 13.0 0.02 0.17 0.17 88 1011.8
20210621100043 54 40 5.0 14.0 0.02 0.17 0.17 88 1011.6
20210621094526 53 42 4.0 17.0 0.02 0.17 0.16 88 1011.5
20210621093022 53 30 6.0 14.0 0.02 0.16 0.15 88 1011.4
20210621091543 53 42 4.0 19.0 0.02 0.15 0.14 88 1011.3
20210621090058 53 20 9.0 16.0 0.02 0.15 0.14 88 1011.3
20210621084521 53 348 3.0 15.0 0.01 0.14 0.13 88 1011.1
20210621083029 53 31 7.0 12.0 0.01 0.13 0.13 88 1010.9
20210621081509 53 23 6.0 16.0 0.01 0.13 0.13 88 1010.9
20210621080016 53 5 6.0 12.0 0.02 0.13 0.13 88 1010.6
20210621074511 53 51 4.0 12.0 0.02 0.13 0.13 88 1010.6
20210621073004 53 30 7.0 15.0 0.02 0.13 0.12 88 1010.4
20210621071610 53 44 5.0 13.0 0.03 0.13 0.12 88 1010.2
20210621070146 53 38 4.0 14.0 0.03 0.12 0.11 88 1010.1
20210621064755 54 5 5.0 12.0 0.00 0.11 0.10 88 1009.9
20210621063751 54 9 5.0 13.0 0.00 0.11 0.10 88 1009.8
20210621063010 53 59 5.0 14.0 0.03 0.10 0.09 88 1009.8
20210621062753 54 45 7.0 13.0 0.03 0.10 0.09 88 1009.7
20210621061750 54 46 5.0 9.0 0.03 0.09 0.08 87 1009.6
20210621060109 54 26 5.0 15.0 0.03 0.09 0.08 87 1009.6
20210621054516 54 43 6.0 12.0 0.02 0.09 0.07 87 1009.4
20210621053040 54 360 6.0 15.0 0.03 0.08 0.06 87 1009.3
20210621051512 55 5 5.0 14.0 0.03 0.08 0.06 87 1009.3
20210621050015 55 53 7.0 13.0 0.03 0.08 0.05 87 1009.3
20210621044530 55 24 5.0 16.0 0.04 0.08 0.05 86 1009.3
20210621043013 55 63 5.0 15.0 0.03 0.06 0.03 86 1009.2
20210621041503 55 49 5.0 13.0 0.03 0.06 0.03 85 1009.0
20210621040242 56 51 6.0 15.0 0.02 0.06 0.02 85 1009.0
20210621034700 57 26 5.0 15.0 0.01 0.06 0.01 85 1008.9
20210621033109 57 32 8.0 16.0 0.00 0.05 0.00 84 1008.9
20210621031724 57 57 6.0 15.0 0.00 0.05 0.00 83 1008.9
20210621030133 58 84 6.0 18.0 0.00 0.06 0.00 83 1008.8
20210621024612 58 63 5.0 15.0 0.00 0.06 0.00 83 1008.7
20210621023125 58 39 6.0 13.0 0.00 0.06 0.00 83 1008.7
20210621021727 58 63 4.0 15.0 0.00 0.06 0.00 83 1008.7
20210621020127 58 20 5.0 12.0 0.00 0.06 0.00 83 1008.5
20210621014625 58 57 5.0 13.0 0.00 0.06 0.00 83 1008.6
20210621013051 59 63 3.0 15.0 0.00 0.06 0.00 83 1008.5
20210621011730 59 64 6.0 15.0 0.00 0.06 0.00 83 1008.6
20210621010038 59 40 5.0 13.0 0.00 0.06 0.00 83 1008.6
20210621004611 59 28 6.0 14.0 0.00 0.06 0.00 84 1008.6
20210621003110 59 79 5.0 15.0 0.00 0.06 0.00 83 1008.5
20210621001536 60 65 6.0 16.0 0.00 0.06 0.00 83 1008.6
20210621000047 60 30 5.0 15.0 0.00 0.10 0.00 83 1008.6
20210620234542 60 27 4.0 12.0 0.00 0.10 0.00 83 1008.6
20210620233036 60 22 3.0 14.0 0.00 0.10 0.00 83 1008.7
20210620231517 60 51 5.0 12.0 0.00 0.10 0.00 83 1008.5
20210620230041 60 94 6.0 12.0 0.00 0.10 0.10 83 1008.5
20210620224521 60 62 5.0 13.0 0.00 0.10 0.10 83 1008.6
20210620223015 61 49 3.0 13.0 0.00 0.10 0.10 83 1008.5
20210620221515 61 27 5.0 12.0 0.00 0.10 0.10 83 1008.4
20210620220017 61 59 6.0 13.0 0.00 0.10 0.10 82 1008.5
20210620214530 61 51 4.0 12.0 0.00 0.10 0.10 82 1008.6
20210620213027 61 33 3.0 10.0 0.00 0.10 0.10 82 1008.6
20210620211515 61 61 5.0 13.0 0.00 0.10 0.10 82 1008.4
20210620210022 62 65 4.0 12.0 0.00 0.11 0.10 82 1008.4
20210620204525 62 68 5.0 13.0 0.00 0.11 0.10 82 1008.4
20210620203158 63 32 5.0 10.0 0.00 0.10 0.10 82 1008.3
20210620203017 62 44 3.0 14.0 0.00 0.11 0.10 82 1008.3
20210620202209 63 30 4.0 7.0 0.00 0.10 0.10 81 1008.1
20210620201610 63 86 5.0 13.0 0.00 0.11 0.10 82 1008.1
20210620200201 63 40 4.0 10.0 0.00 0.13 0.10 81 1008.0
20210620194609 63 17 3.0 10.0 0.00 0.13 0.10 81 1008.0
20210620193205 63 29 6.0 14.0 0.00 0.13 0.10 80 1008.0
20210620191615 64 25 2.0 9.0 0.00 0.13 0.10 79 1008.1
20210620190140 64 22 4.0 7.0 0.00 0.15 0.10 78 1008.1
20210620184634 64 51 2.0 4.0 0.00 0.15 0.10 76 1008.0
20210620183041 64 107 1.0 5.0 0.00 0.15 0.10 75 1007.9
20210620181607 64 79 1.0 5.0 0.00 0.15 0.10 75 1007.8
20210620180132 64 130 0.0 2.0 0.00 0.15 0.10 76 1007.8
20210620174700 64 133 1.0 6.0 0.00 0.15 0.10 76 1007.7
20210620173121 64 153 0.0 3.0 0.00 0.15 0.10 77 1007.5
20210620171557 64 163 2.0 5.0 0.00 0.15 0.10 76 1007.6
20210620170059 64 187 0.0 4.0 0.00 0.16 0.10 76 1007.6
20210620164623 65 186 0.0 4.0 0.00 0.16 0.10 75 1007.6
20210620163043 65 169 2.0 6.0 0.00 0.16 0.10 76 1007.5
20210620161633 65 140 2.0 8.0 0.00 0.16 0.10 75 1007.6
20210620160116 66 164 3.0 8.0 0.00 0.16 0.10 76 1007.6
20210620154619 66 169 2.0 7.0 0.00 0.16 0.10 76 1007.6
20210620153035 65 155 1.0 7.0 0.00 0.16 0.10 78 1007.7
20210620151600 65 128 2.0 5.0 0.00 0.16 0.10 78 1007.8
20210620150111 64 190 3.0 9.0 0.00 0.16 0.10 78 1007.9
20210620143038 65 184 2.0 6.0 0.00 0.16 0.10 77 1008.0
20210620141553 65 152 2.0 5.0 0.00 0.16 0.10 77 1008.1
20210620140008 65 180 3.0 8.0 0.00 0.16 0.10 77 1008.2
20210620135150 66 153 2.0 6.0 0.00 0.15 0.10 78 1008.1
20210620133140 66 138 1.0 8.0 0.00 0.16 0.10 79 1008.3
20210620131613 65 120 2.0 10.0 0.00 0.16 0.10 80 1008.3
20210620130124 65 148 4.0 8.0 0.00 0.16 0.10 81 1008.2
20210620124555 65 178 3.0 9.0 0.00 0.16 0.10 82 1008.3
20210620123127 64 169 2.0 6.0 0.00 0.16 0.10 83 1008.3
20210620121607 63 167 0.0 3.0 0.00 0.16 0.10 85 1008.2
20210620120103 63 165 0.0 3.0 0.00 0.16 0.10 87 1008.3
20210620114620 62 165 0.0 2.0 0.00 0.16 0.10 88 1008.3
20210620113038 61 161 0.0 3.0 0.01 0.16 0.10 89 1008.3
20210620111538 61 161 0.0 3.0 0.01 0.16 0.10 90 1008.4
20210620110113 61 161 0.0 3.0 0.01 0.16 0.10 90 1008.5
20210620104553 60 105 2.0 7.0 0.01 0.16 0.10 90 1008.6
20210620103031 61 155 2.0 7.0 0.00 0.15 0.09 91 1008.5